Back to catalog

STARLINK-34541

AliveCommunicationsVLEO
NORAD 64771·PAYLOAD·🇺🇸 United States

Launched Jul 8, 2025 from Cape Canaveral Space Force Station

Loading…

Next Passes (next 24 hours)

TLE

FreshSource: CelesTrak SupGP

Epoch: Sep 14, 2026, 21:02 UTC

1 64771C 25147S   26257.87687500  .00006659  00000+0  19680-3 0  2576
2 64771  53.1573  79.8596 0000817  81.4033 344.8129 15.34378395    10

Track STARLINK-34541 in real time with AllMySat

Download on the App Store